RH
95 96 95 94 94 89 87 88 84 82 80 73 66 62 62 62 60 56 54 42 46 54
98 98 97 95 95 95 91 86 84 81 76 70 61 52 57 57 53 44 48 47 48 53
99 97 97 96 96 92 88 80 79 78 66 59 55 50 47 44 42 41 48 49 47 49
98 97 96 95 92 88 80 77 73 66 56 48 45 43 40 41 39 41 45 45 46 50
97 95 94 90 88 80 76 65 55 47 43 44 44 38 35 32 38 41 42 45 48 50
95 93 85 76 72 63 54 43 42 42 42 38 36 32 33 36 43 50 55 56 51 52
78 71 63 57 53 48 40 40 40 37 35 38 41 45 53 62 70 68 54 56 56 55
63 48 46 46 42 42 36 33 32 35 41 48 52 52 66 69 67 55 56 57 58 58
48 50 48 46 48 46 49 52 57 66 75 86 82 86 83 71 59 57 59 59 58 61
61 63 64 65 66 71 74 75 82 85 82 85 82 79 75 69 61 61 59 62 65 61
75 80 81 85 89 86 87 90 93 96 99 98 87 75 66 60 59 62 66 69 71 75
89 93 92 94 98 99 99 99 98 90 89 75 60 53 56 60 62 58 63 65 72 75
99 97 99 98 99 100 99 94 85 66 51 53 54 45 39 57 64 65 66 73 73 69
98 99 99 98 99 87 68 49 45 45 48 53 50 55 44 55 64 70 79 77 74 72
Wind_Speed
7 7 7 10 9 10 9 8 10 10 9 10 10 8 6 4 3 5 4 6 5 3
7 8 8 7 7 5 8 9 11 11 11 10 10 9 8 6 5 6 5 5 6 3
5 5 6 8 8 9 10 13 13 11 11 11 10 9 8 6 6 7 4 3 5 4
6 7 7 8 9 9 11 13 13 13 12 12 11 9 8 7 7 7 5 3 4 4
6 9 9 9 9 10 9 11 13 12 11 11 10 8 8 8 7 6 4 3 4 3
5 7 8 9 11 11 11 12 12 13 12 11 9 9 8 8 7 6 6 4 2 2
7 8 9 10 10 11 12 12 13 13 13 12 10 10 9 9 6 5 4 2 2 2
11 10 11 11 12 11 13 13 14 14 13 11 10 7 8 7 5 4 4 2 2 3
13 14 12 13 13 14 13 14 14 13 11 11 7 15 11 7 4 3 3 2 3 3
13 15 13 13 14 13 12 13 13 10 10 8 7 12 11 9 5 4 2 1 1 3
12 14 13 14 13 14 11 10 9 9 6 7 3 10 10 10 5 3 1 2 2 4
11 13 13 14 13 10 9 7 8 4 7 6 4 8 7 6 3 2 3 2 3 5
11 12 12 11 9 7 8 7 6 5 4 7 4 2 1 3 1 1 2 3 4 9
11 11 9 11 5 5 6 5 5 6 5 6 4 4 3 5 2 2 2 3 3 4
Wind_Direction
195 194 188 181 178 185 179 165 155 145 149 143 139 138 136 136 119 115 114 121 98 114
172 167 177 171 158 155 139 143 140 142 138 142 143 141 137 136 134 115 113 129 116 95
159 136 134 140 155 147 144 143 140 141 141 143 139 137 133 122 124 114 113 122 121 117
150 136 134 137 138 143 140 145 145 148 148 146 139 137 125 120 118 113 117 130 125 146
139 133 129 129 127 137 136 138 141 139 134 128 124 120 119 114 102 107 116 129 164 160
117 123 128 130 137 135 140 131 126 124 117 110 109 108 96 97 88 82 70 30 305 87
102 117 116 115 117 121 123 119 117 112 106 104 100 94 93 89 91 95 99 78 4 10
105 102 104 101 105 104 105 103 102 99 93 93 88 93 91 89 86 98 84 61 13 16
95 94 90 92 96 98 94 93 89 86 87 88 96 101 91 121 106 97 90 55 22 336
89 90 91 89 85 81 78 85 81 85 84 88 99 111 123 118 113 78 80 168 15 336
90 95 94 89 87 82 82 87 92 92 101 103 132 154 130 100 101 164 143 36 315 290
104 102 101 99 98 99 96 90 82 100 143 170 131 121 121 126 174 48 2 320 312 291
98 94 98 100 96 86 90 96 147 164 118 125 105 132 33 131 85 311 307 287 289 324
86 91 96 92 96 119 137 133 97 82 69 79 76 4 21 81 129 258 263 309 317 284